Location: Isola Pescaroli
(45.0500°N, 10.1667°E)
Time: 15:37:17
(UTC+00:00)

SJ 16-02 - Pass Details

Date: 03 March 2021
Orbit: 605 x 617 km, 75.0° (Epoch: 11 April)

Event Time Altitude Azimuth Distance (km) Brightness Sun altitude
Rises 19:34:59 0° 343° (NNW) 2,883 5.3 -26.2°
Reaches altitude 10° 19:37:16 10° 348° (NNW) 1,976 4.3 -26.6°
Enters shadow 19:39:33 29° 360° (N) 1,135 2.8 -26.9°
